Вернуться в каталог

KUIPER-00528

АктивенСвязьLEO
NORAD 69603·PAYLOAD·🇺🇸 United States

Запущен Jun 17, 2026 с Guiana Space Centre

Loading…

Ближайшие Пролёты (ближайшие 24 часа)

TLE

СвежийSource: CelesTrak SupGP

Эпоха: Sep 14, 2026, 22:00 UTC

1 69603C 26140M   26257.91725694  .00001818  00000+0  23805-3 0  2577
2 69603  51.9036 341.3990 0000410  84.7255 313.5373 14.79923457    12

Отслеживайте KUIPER-00528 в реальном времени с AllMySat

Download on the App Store